RH
44 50 52 54 54 53 47 42 43 47 43 43 46 49 46 56 57 51 50 50 50 49 47 42 44 47 53 61 62 58 62 66 65 63 59 67 73 68 66 69 64 57 46
60 64 62 59 54 48 45 43 49 46 40 42 44 46 52 56 50 49 50 50 50 48 42 43 45 48 50 52 56 59 64 70 76 82 90 92 65 61 52 66 62 50 47
64 67 63 58 53 48 47 50 48 44 43 45 46 45 50 51 47 49 48 48 48 46 44 45 45 47 49 53 58 61 68 75 71 81 77 86 91 90 62 60 60 52 51
66 65 60 56 51 50 52 51 48 45 39 40 39 40 41 42 47 48 45 46 46 44 42 42 43 46 48 49 54 58 62 70 79 76 78 79 82 95 92 66 55 55 54
69 68 62 54 52 52 51 50 45 44 42 40 37 36 37 42 46 44 45 45 44 42 39 35 35 36 38 43 46 49 56 64 72 80 81 80 80 92 92 95 82 71 57
68 66 60 58 55 54 52 49 46 42 41 40 39 39 39 43 44 44 44 43 43 44 44 42 38 37 37 38 39 44 48 53 59 65 72 81 85 84 87 94 89 85 64
66 71 72 68 62 58 53 50 47 44 42 42 41 41 42 42 43 44 44 44 44 44 44 41 38 32 33 36 36 36 42 46 48 52 57 64 70 79 86 93 91 91 69
66 70 68 64 62 58 54 50 49 46 44 43 42 41 42 42 44 45 46 47 47 47 43 38 32 27 28 28 28 27 31 38 42 48 53 53 57 64 73 84 89 92 84
65 63 61 60 58 57 54 52 51 48 47 45 43 41 43 44 45 47 49 50 50 49 43 33 25 23 24 24 24 23 23 25 32 30 39 50 53 56 57 63 76 86 91
56 60 57 53 50 50 49 53 53 50 46 46 45 43 43 45 48 50 50 51 52 48 39 26 24 23 24 24 24 23 25 24 24 25 21 29 44 57 58 58 62 73 86
61 64 60 55 54 49 47 48 52 53 48 48 46 45 44 46 49 50 50 51 50 44 32 24 24 24 23 24 24 26 26 26 26 25 26 21 26 39 55 61 63 66 76
71 73 68 64 58 51 50 54 56 57 55 53 50 48 50 52 53 53 53 54 51 41 30 25 25 27 28 27 27 27 28 28 28 28 29 27 24 21 28 51 58 60 64
76 79 74 72 67 61 56 56 60 60 60 57 54 52 52 52 50 48 47 44 43 36 30 28 29 32 34 34 34 35 33 31 30 30 32 30 32 26 23 25 36 55 60
75 77 79 73 66 63 60 57 56 57 56 55 54 53 50 46 43 40 38 37 35 33 32 32 34 38 39 40 40 40 38 34 32 30 33 33 35 34 31 31 27 31 54
75 78 79 74 66 61 58 56 56 56 55 54 54 54 54 54 53 53 51 47 43 40 37 35 44 48 45 48 46 42 40 40 39 37 35 34 34 36 37 40 35 45 50
76 76 74 68 66 58 51 42 40 40 38 39 42 42 41 42 45 47 49 50 50 47 45 46 48 47 53 50 43 44 49 48 51 48 39 36 38 36 38 38 49 63 67
77 74 73 68 64 56 39 31 27 23 20 20 21 22 23 25 30 34 39 46 43 42 45 50 50 47 39 36 35 36 40 48 49 47 42 38 33 33 36 37 40 43 48
75 72 72 62 54 40 28 25 21 21 22 24 24 24 24 25 24 23 24 24 29 40 42 41 45 48 44 40 40 40 39 42 44 45 45 47 42 33 36 41 43 40 40
70 68 66 60 43 31 27 22 21 23 26 30 30 29 28 28 29 30 30 29 29 28 33 37 38 40 39 42 45 46 48 44 45 44 42 41 41 39 41 63 68 58 47
66 57 51 41 30 22 22 23 25 27 27 32 33 33 34 37 37 32 32 32 34 36 39 44 42 40 43 40 38 38 54 63 56 48 43 39 51 50 52 72 74 80 63
48 43 36 32 24 22 26 27 27 28 24 26 31 35 38 41 42 40 34 37 39 44 47 48 42 42 40 38 37 51 64 70 71 66 57 50 51 57 70 76 77 74 62
46 37 32 26 24 26 28 28 28 28 28 27 29 33 41 44 45 43 37 39 44 50 52 52 51 47 45 48 51 64 66 68 72 70 63 61 59 59 66 74 67 66 67
34 30 31 33 33 34 36 37 35 36 35 34 33 36 47 46 44 45 42 47 49 56 58 65 67 63 63 62 64 68 69 69 69 66 64 62 69 74 76 74 72 72 73
36 37 41 43 42 38 35 35 36 38 41 43 43 48 50 48 50 47 47 52 59 66 71 71 68 68 71 74 76 76 76 76 75 72 70 70 71 76 76 79 79 81 83
41 43 47 47 44 34 32 33 35 37 42 45 50 53 54 53 53 52 56 59 61 67 71 74 75 79 82 81 79 78 81 88 90 94 93 89 84 82 80 79 78 80 82
46 45 41 41 39 42 43 44 47 51 56 63 64 62 62 61 62 62 64 65 70 73 74 77 80 82 81 78 77 77 80 79 77 82 91 93 91 95 94 98 94 88 89
Wind_Speed
1 5 9 14 18 15 13 11 9 5 4 5 6 4 3 2 2 4 6 6 7 9 11 12 12 12 13 14 14 16 16 16 22 11 8 2 2 4 5 3 7 12 18
4 6 12 16 16 15 12 9 7 4 4 4 4 2 2 1 1 3 4 6 7 9 11 12 13 13 13 13 15 15 13 10 16 11 3 4 4 4 8 3 8 15 20
8 7 12 14 12 12 10 8 6 5 4 3 3 2 2 2 1 2 3 6 7 9 10 12 12 13 13 14 14 14 14 12 11 9 6 3 2 9 5 4 9 14 20
6 6 11 12 11 10 9 8 6 5 4 3 3 2 2 1 0 2 3 4 6 7 9 11 12 12 13 13 13 12 12 11 11 5 8 2 1 1 4 6 15 25 15
7 8 9 10 9 9 9 8 8 6 5 3 2 1 1 2 1 0 2 3 4 6 8 9 9 10 11 11 11 11 11 10 9 7 6 4 4 1 1 4 8 21 19
5 6 8 9 10 10 10 9 9 7 6 4 3 2 2 2 2 1 0 1 2 4 6 7 8 9 9 10 10 9 8 8 7 7 6 4 3 3 3 2 6 11 9
6 6 7 10 11 13 13 12 11 9 7 5 4 3 3 3 4 3 3 2 1 1 3 5 6 8 9 9 9 9 9 8 7 6 5 5 6 7 8 7 5 3 9
5 6 9 12 13 12 12 12 12 11 9 7 6 6 7 6 6 5 5 4 3 3 4 5 6 6 7 7 8 8 8 8 8 7 7 7 5 6 7 7 4 3 3
4 3 5 8 11 12 13 14 13 13 12 10 9 9 8 8 7 6 6 6 5 5 5 6 6 6 6 7 7 8 8 9 9 9 9 9 8 7 8 8 9 5 2
4 4 6 9 11 13 13 13 14 14 12 11 11 10 9 9 8 8 8 8 7 7 7 7 7 7 7 8 9 11 10 10 11 11 11 11 11 10 10 10 10 11 11
6 6 10 9 7 9 11 12 13 14 13 12 11 11 10 10 10 10 10 9 9 9 9 9 8 9 9 10 11 12 13 14 14 13 14 13 12 12 11 10 10 11 12
5 6 12 16 16 11 8 10 11 12 11 10 11 11 10 10 11 11 11 11 12 11 11 11 11 11 11 12 13 14 14 16 17 16 16 17 14 14 12 12 11 12 11
6 5 11 15 19 20 16 6 4 7 7 8 8 8 7 9 10 12 12 13 13 14 13 13 13 14 14 16 16 17 17 18 18 19 18 18 16 17 15 15 14 14 13
6 5 8 14 20 23 25 23 17 10 6 5 5 6 7 9 11 11 13 13 14 16 17 16 15 16 17 18 19 20 21 20 20 20 19 20 20 20 19 18 18 17 17
6 6 5 9 15 18 19 20 19 19 16 14 12 11 10 10 12 13 15 16 16 18 20 19 19 19 19 20 21 21 21 21 22 21 22 23 22 22 22 22 23 19 19
5 4 5 8 11 13 14 15 16 16 15 15 15 15 15 16 16 16 17 18 18 19 20 21 22 21 22 22 21 21 22 22 23 24 25 26 26 25 23 22 21 21 20
5 4 4 6 7 9 10 12 12 13 14 15 15 16 17 18 19 19 19 20 21 22 23 23 24 24 21 19 20 21 23 24 24 25 25 26 27 27 27 25 23 22 21
4 3 4 4 4 5 6 8 9 11 13 15 17 19 21 22 24 24 24 25 25 26 26 27 26 27 27 26 26 26 26 27 28 27 27 27 27 27 27 26 24 23 21
6 4 3 2 1 3 5 6 7 10 12 14 16 18 20 23 25 27 27 28 28 29 29 30 30 30 32 30 30 29 29 30 29 27 27 27 27 25 23 21 23 24 23
3 0 2 4 6 8 9 10 10 13 14 15 16 18 20 22 25 27 28 29 29 31 30 31 30 31 32 32 30 30 29 29 29 28 27 26 24 22 20 20 21 23 25
1 4 5 8 11 12 13 16 18 22 24 23 22 22 22 24 27 30 30 30 30 29 28 27 30 31 31 32 31 26 25 27 29 28 28 27 24 23 21 21 21 24 25
6 6 9 13 16 17 19 23 27 30 30 32 30 27 27 29 29 30 31 30 28 27 29 29 32 34 34 32 30 25 24 24 25 28 30 29 28 27 25 23 24 24 23
7 8 10 15 21 23 22 24 31 29 30 29 31 30 32 32 31 29 29 29 28 26 28 23 24 29 28 29 28 25 27 27 25 27 29 29 27 25 25 25 24 22 22
9 13 17 20 25 26 28 27 29 29 30 30 32 34 32 33 30 30 29 28 27 24 23 21 22 25 27 24 26 26 29 30 28 27 27 28 27 25 25 25 25 24 23
16 20 21 24 28 32 33 32 31 29 30 32 32 32 31 30 30 30 28 25 28 25 25 22 24 24 26 26 27 29 28 26 26 27 26 26 27 27 28 29 30 29 28
20 24 26 27 31 32 34 35 33 31 31 27 26 25 25 25 25 26 28 24 25 25 25 26 27 29 29 32 31 31 30 30 30 28 23 21 20 21 21 20 24 26 24
Wind_Direction
181 167 163 160 165 171 176 184 186 188 195 191 190 195 181 132 50 28 24 16 12 12 9 10 13 17 18 17 14 10 13 20 11 14 360 297 311 66 41 33 25 16 9
159 138 151 162 168 171 180 186 190 197 198 196 188 179 182 208 45 16 12 18 22 15 13 17 18 19 19 17 18 14 14 24 23 20 358 5 350 18 314 340 5 5 4
174 164 164 169 172 177 182 184 192 201 197 188 181 181 170 185 263 351 13 27 25 18 19 21 21 21 21 20 19 16 13 12 26 40 50 19 331 325 349 338 346 353 359
155 167 169 173 181 181 184 193 197 196 196 196 217 238 262 271 335 14 21 30 28 23 25 26 26 25 25 24 23 18 15 13 18 21 25 39 191 39 328 325 334 340 0
174 173 174 184 190 194 196 198 200 200 199 206 213 213 212 194 192 52 36 34 32 29 28 29 29 26 25 23 21 22 22 18 11 13 353 354 343 44 235 293 314 333 346
167 164 188 196 197 198 203 206 207 209 210 217 225 235 230 213 202 193 87 44 29 17 18 17 16 14 13 14 19 21 21 20 12 2 355 337 322 307 296 295 311 309 329
175 189 190 196 201 207 210 213 215 218 222 229 242 250 245 230 223 222 220 222 227 348 360 6 2 3 2 2 5 7 7 11 9 360 353 328 305 289 283 274 282 302 319
188 200 207 211 215 220 224 225 227 230 232 238 243 245 240 236 234 237 238 247 275 316 337 342 345 347 349 351 354 355 352 349 349 345 338 332 318 295 285 271 269 306 289
194 237 251 238 234 235 238 238 237 238 238 242 245 249 249 249 249 250 255 263 278 299 312 320 328 334 337 339 341 341 337 332 329 326 320 316 314 303 299 284 269 227 284
34 344 308 279 263 260 262 253 247 248 252 253 257 264 265 262 260 262 268 271 276 287 299 307 315 323 327 329 328 326 324 319 318 314 311 309 306 298 294 289 277 257 241
39 21 13 4 299 281 269 260 249 248 252 257 264 266 265 261 261 265 269 277 281 286 292 297 304 312 319 318 316 314 312 309 309 306 302 301 298 294 292 288 280 267 248
62 40 38 37 32 8 304 275 262 255 262 269 275 280 282 280 281 285 290 288 289 290 293 294 298 302 304 304 301 301 300 301 300 299 293 294 294 289 286 280 275 275 268
73 52 48 44 43 39 33 8 311 290 286 283 284 286 289 295 301 303 302 298 294 293 292 290 293 298 302 301 300 298 297 295 293 291 286 286 287 287 288 284 278 272 272
75 62 46 45 52 54 53 52 49 39 24 7 2 359 349 337 330 323 317 311 304 300 299 296 295 298 299 298 299 298 296 292 289 289 284 284 283 285 287 283 282 282 273
81 69 62 51 51 50 50 52 53 53 54 56 49 35 18 1 346 336 327 318 314 311 303 293 294 296 295 299 301 298 295 293 290 289 287 286 286 285 284 282 282 279 272
119 97 75 66 57 53 51 48 44 41 37 35 27 16 7 360 354 348 341 331 319 311 305 300 300 296 297 300 300 299 295 293 289 288 288 288 289 287 285 282 275 272 269
155 136 95 70 62 53 42 39 34 29 27 20 12 3 355 348 343 334 326 319 318 315 309 305 303 298 296 299 302 304 301 296 291 288 287 288 289 292 291 287 280 273 265
157 101 68 44 34 25 23 23 15 10 6 1 356 351 345 338 333 327 322 317 312 308 305 302 300 299 295 297 300 303 303 297 292 289 287 287 287 287 289 287 281 275 270
154 158 168 188 273 316 335 340 341 339 336 335 332 332 331 327 323 318 315 313 312 308 304 302 302 300 298 298 295 293 295 293 290 290 290 288 286 286 285 279 276 277 273
140 180 301 296 296 304 301 296 298 297 299 304 306 313 317 317 316 313 308 305 305 303 304 304 303 302 299 299 297 295 292 287 285 285 286 286 284 284 281 273 272 272 274
290 273 274 284 294 302 296 292 292 286 297 297 296 298 305 309 308 309 305 302 302 302 299 300 302 302 300 300 300 297 291 282 279 281 286 286 286 287 279 269 264 263 273
255 284 296 300 304 307 306 300 296 305 308 303 292 291 300 306 303 303 303 301 300 299 299 301 302 302 302 300 301 299 294 289 278 276 284 285 283 280 276 265 266 268 269
280 293 295 301 310 315 317 310 309 314 312 306 296 293 301 303 302 301 299 299 299 294 291 286 286 289 289 292 297 292 293 290 284 279 280 280 278 275 273 270 270 271 268
292 312 318 314 313 317 316 312 314 316 312 306 302 304 303 303 299 299 295 289 284 279 276 276 281 285 288 290 292 293 293 294 288 284 278 277 277 273 273 272 269 266 262
320 325 324 320 315 318 316 315 315 314 307 304 301 299 298 295 293 293 287 283 285 278 279 281 286 288 290 292 293 293 295 291 286 282 277 274 271 268 267 266 268 269 267
329 327 323 319 315 315 313 314 316 315 308 294 292 291 291 288 285 284 288 286 282 285 286 288 289 291 289 295 297 298 299 296 295 291 278 265 255 251 254 248 255 267 263